Regional Weather Roundup
Issued by NWS

Home | Current Version | Previous Version | Graphics & Text | Print | Product List | Glossary On
Versions: 1 2 3 4 5 6 7 8 9 10 11 12 13 14 15 16 17 18 19 20 21 22 23 24 25 26 27 28 29 30 31 32 33 34 35 36 37 38 39 40 41 42 43 44 45 46 47 48 49 50
000
ASUS43 KTOP 240559
RWRKS

WEATHER ROUNDUP FOR KANSAS
NATIONAL WEATHER SERVICE GOODLAND KS
100 AM CDT SAT JUN 24 2017

NOTE:  "FAIR" INDICATES FEW OR NO CLOUDS BELOW 12,000 FEET WITH NO
SIGNIFICANT WEATHER AND/OR OBSTRUCTIONS TO VISIBILITY.

KSZ001>006-013>018-027>032-041>047-240700-
NORTHWEST KANSAS

CITY           SKY/WX    TMP DP  RH WIND       PRES   REMARKS
GOODLAND       CLEAR     55  51  86 W6        30.25S
6HR MIN TEMP:  55; 6HR MAX TEMP:  70;

HAYS           CLEAR     61  51  70 E7        30.20R
HILL CITY      CLEAR     58  49  72 NE7       30.22R
6HR MIN TEMP:  57; 6HR MAX TEMP:  80;

RUSSELL        CLEAR     62  49  62 NE6       30.18R
6HR MIN TEMP:  61; 6HR MAX TEMP:  78;

$$

KSZ061>065-074>080-084>089-240700-
SOUTHWEST KANSAS

CITY           SKY/WX    TMP DP  RH WIND       PRES   REMARKS
DODGE CITY     CLOUDY    65  55  70 W5        30.21R
6HR MIN TEMP:  64; 6HR MAX TEMP:  73;

ELKHART          N/A     62  45  53 NE2         N/A
GARDEN CITY    CLOUDY    64  52  64 N5        30.23R
6HR MIN TEMP:  64; 6HR MAX TEMP:  73;

GREAT BEND     CLEAR     61  55  81 NW6       30.19R
LIBERAL        PTCLDY    62  54  74 N3        30.24S
$$

KSZ066>073-081>083-090>101-240700-
SOUTHEAST KANSAS

CITY           SKY/WX    TMP DP  RH WIND       PRES   REMARKS
CHANUTE        CLEAR     68  54  60 NE6       30.11R
6HR MIN TEMP:  68; 6HR MAX TEMP:  81;

COFFEYVILLE    CLOUDY    67  55  65 NE6       30.08S
6HR MIN TEMP:  67; 6HR MAX TEMP:  84;

HUTCHINSON     MOCLDY    63  52  67 N5        30.15R
6HR MIN TEMP:  58; 6HR MAX TEMP:  78;

MEDICINE LODGE   N/A     66  56  70 N3        30.15R
NEWTON         CLEAR     66  51  58 NE6       30.15R
PARSONS        CLOUDY    71  52  50 N5        30.10R
6HR MIN TEMP:  68; 6HR MAX TEMP:  83;

WICHITA INTL   MOCLDY    68  55  63 CALM      30.13R
6HR MIN TEMP:  65; 6HR MAX TEMP:  80;

WICHITA JABRA  MOCLDY    67  53  61 NE3       30.13R
6HR MIN TEMP:  64; 6HR MAX TEMP:  78;

WINFIELD       CLOUDY    71  55  56 NE5       30.12S
6HR MIN TEMP:  70; 6HR MAX TEMP:  79;

$$

KSZ007>012-019>026-033>040-048>060-102>105-240700-
NORTHEAST KANSAS

CITY           SKY/WX    TMP DP  RH WIND       PRES   REMARKS
CONCORDIA      CLEAR     63  50  62 N3        30.16R
6HR MIN TEMP:  62; 6HR MAX TEMP:  79;

EMPORIA        CLEAR     62  56  80 NW3       30.13R
6HR MIN TEMP:  62; 6HR MAX TEMP:  78;

LAWRENCE       CLEAR     59  58  96 NW6       30.11R
6HR MIN TEMP:  58; 6HR MAX TEMP:  77;

MANHATTAN      CLEAR     62  52  69 CALM      30.14R
6HR MIN TEMP:  61; 6HR MAX TEMP:  80;

OLATHE IND     CLEAR     63  55  75 NW7       30.11R
6HR MIN TEMP:  60; 6HR MAX TEMP:  76;

OLATHE EXE     CLEAR     66  54  65 NW6       30.10R
6HR MIN TEMP:  66; 6HR MAX TEMP:  77;

SALINA         CLEAR     66  51  58 CALM      30.16R
6HR MIN TEMP:  66; 6HR MAX TEMP:  82;

TOPEKA BILLARD CLEAR     63  58  83 NW5       30.12R
6HR MIN TEMP:  62; 6HR MAX TEMP:  78;

TOPEKA FORBES  CLEAR     61  56  83 N5        30.12R
6HR MIN TEMP:  61; 6HR MAX TEMP:  79;

$$




USA.gov is the U.S. government's official web portal to all federal, state and local government web resources and services.